Location: Kuffner-Sternwarte
(48.2130°N, 16.2960°E)
Time: 23:12:08
(UTC+02:00)

COROT - Visible Passes

Search period start: 18 September 2018 00:00
Search period end: 28 September 2018 00:00
Orbit: 601 x 888 km, 90.0° (Epoch: 18 September)

Date Brightness Start Highest point End Pass type
(mag) Time Alt. Az. Time Alt. Az. Time Alt. Az.
18 Sep 8.4 01:44:16 16° NNE 01:44:16 16° NNE 01:45:18 10° N visible
18 Sep 8.3 03:24:03 11° NNW 03:24:03 11° NNW 03:24:21 10° NNW visible
19 Sep 8.8 01:01:12 11° NNE 01:01:12 11° NNE 01:01:25 10° NNE visible
19 Sep 8.2 02:40:59 15° NNW 02:40:59 15° NNW 02:41:54 10° N visible
20 Sep 8.4 01:57:54 16° N 01:57:54 16° N 01:58:53 10° N visible
21 Sep 8.7 01:14:50 13° NNE 01:14:50 13° NNE 01:15:23 10° NNE visible
21 Sep 8.4 02:54:37 12° NNW 02:54:37 12° NNW 02:55:06 10° NNW visible
22 Sep 8.5 02:11:32 15° N 02:11:32 15° N 02:12:21 10° N visible
23 Sep 8.7 01:28:28 14° NNE 01:28:28 14° NNE 01:29:08 10° N visible
24 Sep 8.6 02:25:10 13° NNW 02:25:10 13° NNW 02:25:42 10° NNW visible
25 Sep 8.7 01:42:05 14° N 01:42:05 14° N 01:42:43 10° N visible
26 Sep 8.9 00:59:01 11° NNE 00:59:01 11° NNE 00:59:18 10° NNE visible
26 Sep 8.7 02:38:47 11° NNW 02:38:47 11° NNW 02:38:54 10° NNW visible
27 Sep 8.7 01:55:43 13° N 01:55:43 13° N 01:56:12 10° N visible
